Year,Month,Day,Hour,Minute,Value (Times are PST for temperature in C)
2013,07,17,00,00,21.20
2013,07,17,00,01,21.20
2013,07,17,00,02,21.20
2013,07,17,00,03,21.20
2013,07,17,00,04,21.20
2013,07,17,00,05,21.10
2013,07,17,00,06,21.10
2013,07,17,00,07,21.10
2013,07,17,00,08,21.10
2013,07,17,00,09,21.10
2013,07,17,00,10,21.10
2013,07,17,00,11,21.10
2013,07,17,00,12,21.10
2013,07,17,00,13,21.20
2013,07,17,00,14,21.20
2013,07,17,00,15,21.20
2013,07,17,00,16,21.20
2013,07,17,00,17,21.20
2013,07,17,00,18,21.20
2013,07,17,00,19,21.20
2013,07,17,00,20,21.20
2013,07,17,00,21,21.20
2013,07,17,00,22,21.20
2013,07,17,00,23,21.20
2013,07,17,00,24,21.30
2013,07,17,00,25,21.30
2013,07,17,00,26,21.30
2013,07,17,00,27,21.30
2013,07,17,00,28,21.30
2013,07,17,00,29,21.30
2013,07,17,00,30,21.30
2013,07,17,00,31,21.30
2013,07,17,00,32,21.30
2013,07,17,00,33,21.30
2013,07,17,00,34,21.30
2013,07,17,00,35,21.30
2013,07,17,00,36,21.30
2013,07,17,00,37,21.30
2013,07,17,00,38,21.30
2013,07,17,00,39,21.30
2013,07,17,00,40,21.30
2013,07,17,00,41,21.30
2013,07,17,00,42,21.30
2013,07,17,00,43,21.30
2013,07,17,00,44,21.30
2013,07,17,00,45,21.30
2013,07,17,00,46,21.30
2013,07,17,00,47,21.30
2013,07,17,00,48,21.30
2013,07,17,00,49,21.30
2013,07,17,00,50,21.30
2013,07,17,00,51,21.30
2013,07,17,00,52,21.30
2013,07,17,00,53,21.30
2013,07,17,00,54,21.30
2013,07,17,00,55,21.30
2013,07,17,00,56,21.30
2013,07,17,00,57,21.40
2013,07,17,00,58,21.40
2013,07,17,00,59,21.50
2013,07,17,01,00,21.50
2013,07,17,01,01,21.60
2013,07,17,01,02,21.60
2013,07,17,01,03,21.70
2013,07,17,01,04,21.70
2013,07,17,01,05,21.80
2013,07,17,01,06,21.90
2013,07,17,01,07,21.90
2013,07,17,01,08,22.00
2013,07,17,01,09,22.00
2013,07,17,01,10,22.00
2013,07,17,01,11,22.10
2013,07,17,01,12,22.10
2013,07,17,01,13,22.10
2013,07,17,01,14,22.10
2013,07,17,01,15,22.10
2013,07,17,01,16,22.10
2013,07,17,01,17,22.10
2013,07,17,01,18,22.10
2013,07,17,01,19,22.10
2013,07,17,01,20,22.10
2013,07,17,01,21,22.10
2013,07,17,01,22,22.00
2013,07,17,01,23,22.00
2013,07,17,01,24,21.90
2013,07,17,01,25,21.90
2013,07,17,01,26,21.90
2013,07,17,01,27,21.80
2013,07,17,01,28,21.80
2013,07,17,01,29,21.80
2013,07,17,01,30,21.80
2013,07,17,01,31,21.70
2013,07,17,01,32,21.70
2013,07,17,01,33,21.70
2013,07,17,01,34,21.70
2013,07,17,01,35,21.60
2013,07,17,01,36,21.60
2013,07,17,01,37,21.60
2013,07,17,01,38,21.60
2013,07,17,01,39,21.50
2013,07,17,01,40,21.50
2013,07,17,01,41,21.50
2013,07,17,01,42,21.40
2013,07,17,01,43,21.40
2013,07,17,01,44,21.40
2013,07,17,01,45,21.40
2013,07,17,01,46,21.40
2013,07,17,01,47,21.40
2013,07,17,01,48,21.30
2013,07,17,01,49,21.30
2013,07,17,01,50,21.30
2013,07,17,01,51,21.30
2013,07,17,01,52,21.30
2013,07,17,01,53,21.30
2013,07,17,01,54,21.30
2013,07,17,01,55,21.30
2013,07,17,01,56,21.30
2013,07,17,01,57,21.30
2013,07,17,01,58,21.40
2013,07,17,01,59,21.40
2013,07,17,02,00,21.40
2013,07,17,02,01,21.40
2013,07,17,02,02,21.40
2013,07,17,02,03,21.40
2013,07,17,02,04,21.40
2013,07,17,02,05,21.50
2013,07,17,02,06,21.50
2013,07,17,02,07,21.60
2013,07,17,02,08,21.60
2013,07,17,02,09,21.70
2013,07,17,02,10,21.70
2013,07,17,02,11,21.90
2013,07,17,02,12,22.20
2013,07,17,02,13,22.60
2013,07,17,02,14,22.90
2013,07,17,02,15,23.10
2013,07,17,02,16,23.30
2013,07,17,02,17,23.40
2013,07,17,02,18,23.40
2013,07,17,02,19,23.50
2013,07,17,02,20,23.60
2013,07,17,02,21,23.60
2013,07,17,02,22,23.70
2013,07,17,02,23,23.70
2013,07,17,02,24,23.70
2013,07,17,02,25,23.70
2013,07,17,02,26,23.70
2013,07,17,02,27,23.70
2013,07,17,02,28,23.60
2013,07,17,02,29,23.50
2013,07,17,02,30,23.30
2013,07,17,02,31,23.10
2013,07,17,02,32,23.00
2013,07,17,02,33,22.90
2013,07,17,02,34,22.80
2013,07,17,02,35,22.70
2013,07,17,02,36,22.50
2013,07,17,02,37,22.40
2013,07,17,02,38,22.30
2013,07,17,02,39,22.20
2013,07,17,02,40,22.00
2013,07,17,02,41,21.90
2013,07,17,02,42,21.80
2013,07,17,02,43,21.70
2013,07,17,02,44,21.60
2013,07,17,02,45,21.50
2013,07,17,02,46,21.40
2013,07,17,02,47,21.10
2013,07,17,02,48,20.80
2013,07,17,02,49,20.60
2013,07,17,02,50,20.40
2013,07,17,02,51,20.20
2013,07,17,02,52,20.10
2013,07,17,02,53,20.00
2013,07,17,02,54,20.00
2013,07,17,02,55,19.90
2013,07,17,02,56,19.90
2013,07,17,02,57,19.80
2013,07,17,02,58,19.70
2013,07,17,02,59,19.70
2013,07,17,03,00,19.50
2013,07,17,03,01,19.50
2013,07,17,03,02,19.40
2013,07,17,03,03,19.30
2013,07,17,03,04,19.30
2013,07,17,03,05,19.20
2013,07,17,03,06,19.20
2013,07,17,03,07,19.20
2013,07,17,03,08,19.10
2013,07,17,03,09,19.10
2013,07,17,03,10,19.00
2013,07,17,03,11,18.90
2013,07,17,03,12,18.80
2013,07,17,03,13,18.80
2013,07,17,03,14,18.70
2013,07,17,03,15,18.60
2013,07,17,03,16,18.50
2013,07,17,03,17,18.40
2013,07,17,03,18,18.40
2013,07,17,03,19,18.30
2013,07,17,03,20,18.20
2013,07,17,03,21,18.10
2013,07,17,03,22,18.00
2013,07,17,03,23,17.90
2013,07,17,03,24,17.90
2013,07,17,03,25,17.80
2013,07,17,03,26,17.70
2013,07,17,03,27,17.70
2013,07,17,03,28,17.60
2013,07,17,03,29,17.50
2013,07,17,03,30,17.40
2013,07,17,03,31,17.30
2013,07,17,03,32,17.30
2013,07,17,03,33,17.20
2013,07,17,03,34,17.10
2013,07,17,03,35,17.10
2013,07,17,03,36,17.00
2013,07,17,03,37,17.00
2013,07,17,03,38,16.90
2013,07,17,03,39,16.90
2013,07,17,03,40,16.80
2013,07,17,03,41,16.80
2013,07,17,03,42,16.80
2013,07,17,03,43,16.80
2013,07,17,03,44,16.80
2013,07,17,03,45,16.80
2013,07,17,03,46,16.80
2013,07,17,03,47,16.80
2013,07,17,03,48,16.80
2013,07,17,03,49,16.80
2013,07,17,03,50,16.80
2013,07,17,03,51,16.80
2013,07,17,03,52,16.80
2013,07,17,03,53,16.70
2013,07,17,03,54,16.80
2013,07,17,03,55,16.70
2013,07,17,03,56,16.80
2013,07,17,03,57,16.80
2013,07,17,03,58,16.80
2013,07,17,03,59,16.80
2013,07,17,04,00,16.80
2013,07,17,04,01,16.80
2013,07,17,04,02,16.80
2013,07,17,04,03,16.80
2013,07,17,04,04,16.80
2013,07,17,04,05,16.80
2013,07,17,04,06,16.80
2013,07,17,04,07,16.80
2013,07,17,04,08,16.80
2013,07,17,04,09,16.80
2013,07,17,04,10,16.80
2013,07,17,04,11,16.80
2013,07,17,04,12,16.80
2013,07,17,04,13,16.80
2013,07,17,04,14,16.90
2013,07,17,04,15,16.90
2013,07,17,04,16,16.90
2013,07,17,04,17,16.90
2013,07,17,04,18,16.90
2013,07,17,04,19,16.90
2013,07,17,04,20,16.90
2013,07,17,04,21,16.90
2013,07,17,04,22,16.90
2013,07,17,04,23,16.90
2013,07,17,04,24,16.90
2013,07,17,04,25,16.90
2013,07,17,04,26,16.90
2013,07,17,04,27,16.90
2013,07,17,04,28,16.90
2013,07,17,04,29,17.00
2013,07,17,04,30,17.00
2013,07,17,04,31,17.00
2013,07,17,04,32,17.10
2013,07,17,04,33,17.10
2013,07,17,04,34,17.10
2013,07,17,04,35,17.10
2013,07,17,04,36,17.10
2013,07,17,04,37,17.10
2013,07,17,04,38,17.10
2013,07,17,04,39,17.10
2013,07,17,04,40,17.10
2013,07,17,04,41,17.10
2013,07,17,04,42,17.10
2013,07,17,04,43,17.10
2013,07,17,04,44,17.10
2013,07,17,04,45,17.10
2013,07,17,04,46,17.10
2013,07,17,04,47,17.20
2013,07,17,04,48,17.20
2013,07,17,04,49,17.20
2013,07,17,04,50,17.20
2013,07,17,04,51,17.20
2013,07,17,04,52,17.30
2013,07,17,04,53,17.30
2013,07,17,04,54,17.30
2013,07,17,04,55,17.30
2013,07,17,04,56,17.30
2013,07,17,04,57,17.20
2013,07,17,04,58,17.20
2013,07,17,04,59,17.20
2013,07,17,05,00,17.20
2013,07,17,05,01,17.20
2013,07,17,05,02,17.20
2013,07,17,05,03,17.20
2013,07,17,05,04,17.20
2013,07,17,05,05,17.20
2013,07,17,05,06,17.20
2013,07,17,05,07,17.20
2013,07,17,05,08,17.20
2013,07,17,05,09,17.10
2013,07,17,05,10,17.10
2013,07,17,05,11,17.00
2013,07,17,05,12,16.90
2013,07,17,05,13,16.80
2013,07,17,05,14,16.70
2013,07,17,05,15,16.60
2013,07,17,05,16,16.50
2013,07,17,05,17,16.40
2013,07,17,05,18,16.40
2013,07,17,05,19,16.30
2013,07,17,05,20,16.30
2013,07,17,05,21,16.30
2013,07,17,05,22,16.20
2013,07,17,05,23,16.20
2013,07,17,05,24,16.20
2013,07,17,05,25,16.20
2013,07,17,05,26,16.20
2013,07,17,05,27,16.10
2013,07,17,05,28,16.10
2013,07,17,05,29,16.10
2013,07,17,05,30,16.10
2013,07,17,05,31,16.10
2013,07,17,05,32,16.10
2013,07,17,05,33,16.10
2013,07,17,05,34,16.10
2013,07,17,05,35,16.10
2013,07,17,05,36,16.10
2013,07,17,05,37,16.10
2013,07,17,05,38,16.20
2013,07,17,05,39,16.20
2013,07,17,05,40,16.20
2013,07,17,05,41,16.30
2013,07,17,05,42,16.30
2013,07,17,05,43,16.30
2013,07,17,05,44,16.40
2013,07,17,05,45,16.40
2013,07,17,05,46,16.40
2013,07,17,05,47,16.50
2013,07,17,05,48,16.50
2013,07,17,05,49,16.50
2013,07,17,05,50,16.60
2013,07,17,05,51,16.60
2013,07,17,05,52,16.60
2013,07,17,05,53,16.70
2013,07,17,05,54,16.70
2013,07,17,05,55,16.70
2013,07,17,05,56,16.70
2013,07,17,05,57,16.70
2013,07,17,05,58,16.80
2013,07,17,05,59,16.80
2013,07,17,06,00,16.80
2013,07,17,06,01,16.80
2013,07,17,06,02,16.80
2013,07,17,06,03,16.80
2013,07,17,06,04,16.80
2013,07,17,06,05,16.90
2013,07,17,06,06,16.90
2013,07,17,06,07,16.90
2013,07,17,06,08,16.90
2013,07,17,06,09,16.90
2013,07,17,06,10,16.90
2013,07,17,06,11,16.90
2013,07,17,06,12,16.90
2013,07,17,06,13,16.90
2013,07,17,06,14,17.00
2013,07,17,06,15,17.00
2013,07,17,06,16,17.00
2013,07,17,06,17,17.00
2013,07,17,06,18,17.00
2013,07,17,06,19,17.10
2013,07,17,06,20,17.10
2013,07,17,06,21,17.10
2013,07,17,06,22,17.10
2013,07,17,06,23,17.10
2013,07,17,06,24,17.10
2013,07,17,06,25,17.10
2013,07,17,06,26,17.10
2013,07,17,06,27,17.10
2013,07,17,06,28,17.10
2013,07,17,06,29,17.10
2013,07,17,06,30,17.10
2013,07,17,06,31,17.10
2013,07,17,06,32,17.20
2013,07,17,06,33,17.20
2013,07,17,06,34,17.20
2013,07,17,06,35,17.20
2013,07,17,06,36,17.20
2013,07,17,06,37,17.20
2013,07,17,06,38,17.20
2013,07,17,06,39,17.30
2013,07,17,06,40,17.30
2013,07,17,06,41,17.30
2013,07,17,06,42,17.30
2013,07,17,06,43,17.30
2013,07,17,06,44,17.30
2013,07,17,06,45,17.30
2013,07,17,06,46,17.30
2013,07,17,06,47,17.30
2013,07,17,06,48,17.30
2013,07,17,06,49,17.30
2013,07,17,06,50,17.30
2013,07,17,06,51,17.30
2013,07,17,06,52,17.30
2013,07,17,06,53,17.40
2013,07,17,06,54,17.40
2013,07,17,06,55,17.40
2013,07,17,06,56,17.40
2013,07,17,06,57,17.40
2013,07,17,06,58,17.40
2013,07,17,06,59,17.40
2013,07,17,07,00,17.40
2013,07,17,07,01,17.40
2013,07,17,07,02,17.50
2013,07,17,07,03,17.50
2013,07,17,07,04,17.50
2013,07,17,07,05,17.50
2013,07,17,07,06,17.50
2013,07,17,07,07,17.40
2013,07,17,07,08,17.40
2013,07,17,07,09,17.40
2013,07,17,07,10,17.30
2013,07,17,07,11,17.30
2013,07,17,07,12,17.20
2013,07,17,07,13,17.20
2013,07,17,07,14,17.10
2013,07,17,07,15,17.00
2013,07,17,07,16,17.00
2013,07,17,07,17,16.90
2013,07,17,07,18,16.90
2013,07,17,07,19,16.80
2013,07,17,07,20,16.80
2013,07,17,07,21,16.80
2013,07,17,07,22,16.80
2013,07,17,07,23,16.80
2013,07,17,07,24,16.80
2013,07,17,07,25,16.80
2013,07,17,07,26,16.80
2013,07,17,07,27,16.80
2013,07,17,07,28,16.80
2013,07,17,07,29,16.80
2013,07,17,07,30,16.80
2013,07,17,07,31,16.90
2013,07,17,07,32,16.90
2013,07,17,07,33,16.90
2013,07,17,07,34,17.00
2013,07,17,07,35,17.00
2013,07,17,07,36,17.10
2013,07,17,07,37,17.10
2013,07,17,07,38,17.20
2013,07,17,07,39,17.20
2013,07,17,07,40,17.30
2013,07,17,07,41,17.30
2013,07,17,07,42,17.30
2013,07,17,07,43,17.40
2013,07,17,07,44,17.40
2013,07,17,07,45,17.50
2013,07,17,07,46,17.50
2013,07,17,07,47,17.60
2013,07,17,07,48,17.60
2013,07,17,07,49,17.60
2013,07,17,07,50,17.70
2013,07,17,07,51,17.70
2013,07,17,07,52,17.70
2013,07,17,07,53,17.70
2013,07,17,07,54,17.70
2013,07,17,07,55,17.70
2013,07,17,07,56,17.80
2013,07,17,07,57,17.80
2013,07,17,07,58,17.80
2013,07,17,07,59,17.90
2013,07,17,08,00,17.90
2013,07,17,08,01,17.90
2013,07,17,08,02,18.00
2013,07,17,08,03,18.00
2013,07,17,08,04,18.10
2013,07,17,08,05,18.10
2013,07,17,08,06,18.20
2013,07,17,08,07,18.20
2013,07,17,08,08,18.30
2013,07,17,08,09,18.30
2013,07,17,08,10,18.40
2013,07,17,08,11,18.40
2013,07,17,08,12,18.50
2013,07,17,08,13,18.60
2013,07,17,08,14,18.70
2013,07,17,08,15,18.80
2013,07,17,08,16,18.80
2013,07,17,08,17,18.80
2013,07,17,08,18,18.90
2013,07,17,08,19,18.90
2013,07,17,08,20,18.80
2013,07,17,08,21,18.70
2013,07,17,08,22,18.60
2013,07,17,08,23,18.50
2013,07,17,08,24,18.50
2013,07,17,08,25,18.40
2013,07,17,08,26,18.40
2013,07,17,08,27,18.40
2013,07,17,08,28,18.40
2013,07,17,08,29,18.50
2013,07,17,08,30,18.50
2013,07,17,08,31,18.60
2013,07,17,08,32,18.60
2013,07,17,08,33,18.70
2013,07,17,08,34,18.80
2013,07,17,08,35,18.80
2013,07,17,08,36,18.90
2013,07,17,08,37,18.90
2013,07,17,08,38,19.00
2013,07,17,08,39,19.10
2013,07,17,08,40,19.10
2013,07,17,08,41,19.20
2013,07,17,08,42,19.30
2013,07,17,08,43,19.30
2013,07,17,08,44,19.40
2013,07,17,08,45,19.50
2013,07,17,08,46,19.50
2013,07,17,08,47,19.60
2013,07,17,08,48,19.60
2013,07,17,08,49,19.60
2013,07,17,08,50,19.60
2013,07,17,08,51,19.60
2013,07,17,08,52,19.50
2013,07,17,08,53,19.40
2013,07,17,08,54,19.30
2013,07,17,08,55,19.30
2013,07,17,08,56,19.20
2013,07,17,08,57,19.30
2013,07,17,08,58,19.30
2013,07,17,08,59,19.30
2013,07,17,09,00,19.30
2013,07,17,09,01,19.30
2013,07,17,09,02,19.30
2013,07,17,09,03,19.30
2013,07,17,09,04,19.30
2013,07,17,09,05,19.40
2013,07,17,09,06,19.40
2013,07,17,09,07,19.40
2013,07,17,09,08,19.40
2013,07,17,09,09,19.50
2013,07,17,09,10,19.50
2013,07,17,09,11,19.50
2013,07,17,09,12,19.60
2013,07,17,09,13,19.60
2013,07,17,09,14,19.70
2013,07,17,09,15,19.70
2013,07,17,09,16,19.70
2013,07,17,09,17,19.70
2013,07,17,09,18,19.80
2013,07,17,09,19,19.80
2013,07,17,09,20,19.80
2013,07,17,09,21,19.80
2013,07,17,09,22,19.80
2013,07,17,09,23,19.80
2013,07,17,09,24,19.70
2013,07,17,09,25,19.70
2013,07,17,09,26,19.70
2013,07,17,09,27,19.70
2013,07,17,09,28,19.70
2013,07,17,09,29,19.70
2013,07,17,09,30,19.80
2013,07,17,09,31,19.80
2013,07,17,09,32,19.80
2013,07,17,09,33,19.80
2013,07,17,09,34,19.80
2013,07,17,09,35,19.80
2013,07,17,09,36,19.70
2013,07,17,09,37,19.70
2013,07,17,09,38,19.60
2013,07,17,09,39,19.50
2013,07,17,09,40,19.40
2013,07,17,09,41,19.30
2013,07,17,09,42,19.30
2013,07,17,09,43,19.20
2013,07,17,09,44,19.30
2013,07,17,09,45,19.30
2013,07,17,09,46,19.30
2013,07,17,09,47,19.30
2013,07,17,09,48,19.30
2013,07,17,09,49,19.40
2013,07,17,09,50,19.40
2013,07,17,09,51,19.40
2013,07,17,09,52,19.40
2013,07,17,09,53,19.40
2013,07,17,09,54,19.40
2013,07,17,09,55,19.50
2013,07,17,09,56,19.50
2013,07,17,09,57,19.50
2013,07,17,09,58,19.60
2013,07,17,09,59,19.60
2013,07,17,10,00,19.70
2013,07,17,10,01,19.80
2013,07,17,10,02,19.90
2013,07,17,10,03,20.00
2013,07,17,10,04,20.00
2013,07,17,10,05,20.10
2013,07,17,10,06,20.00
2013,07,17,10,07,20.00
2013,07,17,10,08,19.90
2013,07,17,10,09,19.90
2013,07,17,10,10,20.00
2013,07,17,10,11,20.10
2013,07,17,10,12,20.10
2013,07,17,10,13,20.20
2013,07,17,10,14,20.30
2013,07,17,10,15,20.30
2013,07,17,10,16,20.20
2013,07,17,10,17,20.20
2013,07,17,10,18,20.10
2013,07,17,10,19,20.00
2013,07,17,10,20,19.90
2013,07,17,10,21,19.90
2013,07,17,10,22,19.80
2013,07,17,10,23,19.70
2013,07,17,10,24,19.60
2013,07,17,10,25,19.60
2013,07,17,10,26,19.60
2013,07,17,10,27,19.60
2013,07,17,10,28,19.60
2013,07,17,10,29,19.50
2013,07,17,10,30,19.50
2013,07,17,10,31,19.50
2013,07,17,10,32,19.60
2013,07,17,10,33,19.60
2013,07,17,10,34,19.70
2013,07,17,10,35,19.80
2013,07,17,10,36,20.00
2013,07,17,10,37,20.10
2013,07,17,10,38,20.20
2013,07,17,10,39,20.20
2013,07,17,10,40,20.20
2013,07,17,10,41,20.20
2013,07,17,10,42,20.20
2013,07,17,10,43,20.20
2013,07,17,10,44,20.20
2013,07,17,10,45,20.20
2013,07,17,10,46,20.20
2013,07,17,10,47,20.30
2013,07,17,10,48,20.30
2013,07,17,10,49,20.30
2013,07,17,10,50,20.30
2013,07,17,10,51,20.30
2013,07,17,10,52,20.30
2013,07,17,10,53,20.30
2013,07,17,10,54,20.30
2013,07,17,10,55,20.20
2013,07,17,10,56,20.20
2013,07,17,10,57,20.20
2013,07,17,10,58,20.20
2013,07,17,10,59,20.20
2013,07,17,11,00,20.20
2013,07,17,11,01,20.20
2013,07,17,11,02,20.20
2013,07,17,11,03,20.20
2013,07,17,11,04,20.30
2013,07,17,11,05,20.30
2013,07,17,11,06,20.30
2013,07,17,11,07,20.30
2013,07,17,11,08,20.20
2013,07,17,11,09,20.20
2013,07,17,11,10,20.10
2013,07,17,11,11,20.10
2013,07,17,11,12,20.20
2013,07,17,11,13,20.20
2013,07,17,11,14,20.20
2013,07,17,11,15,20.10
2013,07,17,11,16,19.90
2013,07,17,11,17,19.80
2013,07,17,11,18,19.70
2013,07,17,11,19,19.70
2013,07,17,11,20,19.70
2013,07,17,11,21,19.70
2013,07,17,11,22,19.80
2013,07,17,11,23,20.00
2013,07,17,11,24,20.00
2013,07,17,11,25,20.00
2013,07,17,11,26,20.10
2013,07,17,11,27,20.20
2013,07,17,11,28,20.30
2013,07,17,11,29,20.50
2013,07,17,11,30,20.60
2013,07,17,11,31,20.60
2013,07,17,11,32,20.50
2013,07,17,11,33,20.40
2013,07,17,11,34,20.40
2013,07,17,11,35,20.40
2013,07,17,11,36,20.40
2013,07,17,11,37,20.40
2013,07,17,11,38,20.40
2013,07,17,11,39,20.50
2013,07,17,11,40,20.60
2013,07,17,11,41,20.70
2013,07,17,11,42,20.60
2013,07,17,11,43,20.50
2013,07,17,11,44,20.50
2013,07,17,11,45,20.40
2013,07,17,11,46,20.20
2013,07,17,11,47,20.10
2013,07,17,11,48,20.10
2013,07,17,11,49,20.10
2013,07,17,11,50,20.00
2013,07,17,11,51,20.00
2013,07,17,11,52,20.10
2013,07,17,11,53,20.10
2013,07,17,11,54,20.10
2013,07,17,11,55,20.10
2013,07,17,11,56,20.00
2013,07,17,11,57,19.90
2013,07,17,11,58,19.80
2013,07,17,11,59,19.80
2013,07,17,12,00,20.00
2013,07,17,12,01,20.00
2013,07,17,12,02,20.10
2013,07,17,12,03,20.10
2013,07,17,12,04,20.20
2013,07,17,12,05,20.30
2013,07,17,12,06,20.30
2013,07,17,12,07,20.20
2013,07,17,12,08,20.10
2013,07,17,12,09,19.90
2013,07,17,12,10,19.70
2013,07,17,12,11,19.60
2013,07,17,12,12,19.50
2013,07,17,12,13,19.50
2013,07,17,12,14,19.40
2013,07,17,12,15,19.30
2013,07,17,12,16,19.20
2013,07,17,12,17,19.20
2013,07,17,12,18,19.20
2013,07,17,12,19,19.30
2013,07,17,12,20,19.30
2013,07,17,12,21,19.30
2013,07,17,12,22,19.30
2013,07,17,12,23,19.20
2013,07,17,12,24,19.10
2013,07,17,12,25,19.10
2013,07,17,12,26,19.10
2013,07,17,12,27,19.10
2013,07,17,12,28,19.10
2013,07,17,12,29,19.00
2013,07,17,12,30,19.00
2013,07,17,12,31,19.10
2013,07,17,12,32,19.20
2013,07,17,12,33,19.40
2013,07,17,12,34,19.50
2013,07,17,12,35,19.50
2013,07,17,12,36,19.60
2013,07,17,12,37,19.60
2013,07,17,12,38,19.70
2013,07,17,12,39,19.70
2013,07,17,12,40,19.80
2013,07,17,12,41,19.80
2013,07,17,12,42,19.80
2013,07,17,12,43,19.80
2013,07,17,12,44,19.70
2013,07,17,12,45,19.60
2013,07,17,12,46,19.50
2013,07,17,12,47,19.50
2013,07,17,12,48,19.40
2013,07,17,12,49,19.50
2013,07,17,12,50,19.40
2013,07,17,12,51,19.40
2013,07,17,12,52,19.40
2013,07,17,12,53,19.50
2013,07,17,12,54,19.50
2013,07,17,12,55,19.50
2013,07,17,12,56,19.60
2013,07,17,12,57,19.70
2013,07,17,12,58,19.60
2013,07,17,12,59,19.60
2013,07,17,13,00,19.70
2013,07,17,13,01,19.60
2013,07,17,13,02,19.50
2013,07,17,13,03,19.50
2013,07,17,13,04,19.50
2013,07,17,13,05,19.50
2013,07,17,13,06,19.60
2013,07,17,13,07,19.60
2013,07,17,13,08,19.70
2013,07,17,13,09,19.70
2013,07,17,13,10,19.70
2013,07,17,13,11,19.80
2013,07,17,13,12,19.80
2013,07,17,13,13,19.80
2013,07,17,13,14,19.70
2013,07,17,13,15,19.70
2013,07,17,13,16,19.70
2013,07,17,13,17,19.60
2013,07,17,13,18,19.50
2013,07,17,13,19,19.50
2013,07,17,13,20,19.50
2013,07,17,13,21,19.60
2013,07,17,13,22,19.70
2013,07,17,13,23,19.90
2013,07,17,13,24,20.10
2013,07,17,13,25,20.20
2013,07,17,13,26,20.30
2013,07,17,13,27,20.10
2013,07,17,13,28,20.00
2013,07,17,13,29,20.00
2013,07,17,13,30,20.10
2013,07,17,13,31,20.20
2013,07,17,13,32,20.30
2013,07,17,13,33,20.40
2013,07,17,13,34,20.60
2013,07,17,13,35,20.70
2013,07,17,13,36,20.70
2013,07,17,13,37,20.70
2013,07,17,13,38,20.50
2013,07,17,13,39,20.40
2013,07,17,13,40,20.40
2013,07,17,13,41,20.40
2013,07,17,13,42,20.30
2013,07,17,13,43,20.40
2013,07,17,13,44,20.30
2013,07,17,13,45,20.20
2013,07,17,13,46,20.10
2013,07,17,13,47,20.00
2013,07,17,13,48,20.00
2013,07,17,13,49,20.00
2013,07,17,13,50,20.10
2013,07,17,13,51,20.10
2013,07,17,13,52,20.10
2013,07,17,13,53,20.10
2013,07,17,13,54,20.20
2013,07,17,13,55,20.30
2013,07,17,13,56,20.20
2013,07,17,13,57,20.10
2013,07,17,13,58,20.00
2013,07,17,13,59,20.00
2013,07,17,14,00,20.00
2013,07,17,14,01,20.00
2013,07,17,14,02,20.00
2013,07,17,14,03,20.00
2013,07,17,14,04,20.00
2013,07,17,14,05,20.00
2013,07,17,14,06,20.00
2013,07,17,14,07,19.90
2013,07,17,14,08,19.80
2013,07,17,14,09,19.80
2013,07,17,14,10,19.90
2013,07,17,14,11,19.90
2013,07,17,14,12,19.90
2013,07,17,14,13,20.00
2013,07,17,14,14,20.00
2013,07,17,14,15,20.00
2013,07,17,14,16,20.10
2013,07,17,14,17,20.10
2013,07,17,14,18,20.10
2013,07,17,14,19,20.20
2013,07,17,14,20,20.20
2013,07,17,14,21,20.10
2013,07,17,14,22,20.00
2013,07,17,14,23,19.90
2013,07,17,14,24,19.90
2013,07,17,14,25,19.90
2013,07,17,14,26,20.00
2013,07,17,14,27,20.10
2013,07,17,14,28,20.10
2013,07,17,14,29,20.00
2013,07,17,14,30,19.90
2013,07,17,14,31,19.80
2013,07,17,14,32,19.80
2013,07,17,14,33,19.90
2013,07,17,14,34,20.10
2013,07,17,14,35,20.10
2013,07,17,14,36,20.20
2013,07,17,14,37,20.20
2013,07,17,14,38,20.20
2013,07,17,14,39,20.20
2013,07,17,14,40,20.30
2013,07,17,14,41,20.30
2013,07,17,14,42,20.30
2013,07,17,14,43,20.20
2013,07,17,14,44,20.10
2013,07,17,14,45,20.10
2013,07,17,14,46,20.00
2013,07,17,14,47,20.10
2013,07,17,14,48,20.10
2013,07,17,14,49,20.10
2013,07,17,14,50,20.00
2013,07,17,14,51,20.00
2013,07,17,14,52,19.90
2013,07,17,14,53,19.80
2013,07,17,14,54,19.80
2013,07,17,14,55,19.80
2013,07,17,14,56,19.80
2013,07,17,14,57,19.80
2013,07,17,14,58,19.80
2013,07,17,14,59,20.00
2013,07,17,15,00,20.10
2013,07,17,15,01,20.20
2013,07,17,15,02,20.30
2013,07,17,15,03,20.40
2013,07,17,15,04,20.50
2013,07,17,15,05,20.60
2013,07,17,15,06,20.60
2013,07,17,15,07,20.50
2013,07,17,15,08,20.50
2013,07,17,15,09,20.50
2013,07,17,15,10,20.50
2013,07,17,15,11,20.60
2013,07,17,15,12,20.60
2013,07,17,15,13,20.50
2013,07,17,15,14,20.50
2013,07,17,15,15,20.40
2013,07,17,15,16,20.30
2013,07,17,15,17,20.20
2013,07,17,15,18,20.20
2013,07,17,15,19,20.10
2013,07,17,15,20,20.00
2013,07,17,15,21,19.90
2013,07,17,15,22,19.90
2013,07,17,15,23,19.90
2013,07,17,15,24,19.80
2013,07,17,15,25,19.90
2013,07,17,15,26,19.80
2013,07,17,15,27,19.80
2013,07,17,15,28,19.80
2013,07,17,15,29,19.80
2013,07,17,15,30,19.80
2013,07,17,15,31,19.90
2013,07,17,15,32,19.90
2013,07,17,15,33,20.00
2013,07,17,15,34,20.00
2013,07,17,15,35,20.00
2013,07,17,15,36,20.00
2013,07,17,15,37,19.90
2013,07,17,15,38,19.90
2013,07,17,15,39,19.90
2013,07,17,15,40,20.00
2013,07,17,15,41,20.10
2013,07,17,15,42,20.10
2013,07,17,15,43,20.10
2013,07,17,15,44,20.10
2013,07,17,15,45,20.10
2013,07,17,15,46,20.10
2013,07,17,15,47,20.10
2013,07,17,15,48,20.10
2013,07,17,15,49,20.20
2013,07,17,15,50,20.30
2013,07,17,15,51,20.30
2013,07,17,15,52,20.40
2013,07,17,15,53,20.40
2013,07,17,15,54,20.50
2013,07,17,15,55,20.50
2013,07,17,15,56,20.50
2013,07,17,15,57,20.50
2013,07,17,15,58,20.50
2013,07,17,15,59,20.60
2013,07,17,16,00,20.50
2013,07,17,16,01,20.50
2013,07,17,16,02,20.50
2013,07,17,16,03,20.40
2013,07,17,16,04,20.40
2013,07,17,16,05,20.40
2013,07,17,16,06,20.30
2013,07,17,16,07,20.20
2013,07,17,16,08,20.20
2013,07,17,16,09,20.10
2013,07,17,16,10,20.10
2013,07,17,16,11,20.10
2013,07,17,16,12,20.00
2013,07,17,16,13,20.00
2013,07,17,16,14,20.00
2013,07,17,16,15,20.00
2013,07,17,16,16,20.00
2013,07,17,16,17,20.00
2013,07,17,16,18,20.10
2013,07,17,16,19,20.10
2013,07,17,16,20,20.10
2013,07,17,16,21,20.10
2013,07,17,16,22,20.20
2013,07,17,16,23,20.10
2013,07,17,16,24,20.20
2013,07,17,16,25,20.10
2013,07,17,16,26,20.20
2013,07,17,16,27,20.20
2013,07,17,16,28,20.20
2013,07,17,16,29,20.30
2013,07,17,16,30,20.40
2013,07,17,16,31,20.40
2013,07,17,16,32,20.30
2013,07,17,16,33,20.40
2013,07,17,16,34,20.40
2013,07,17,16,35,20.50
2013,07,17,16,36,20.50
2013,07,17,16,37,20.50
2013,07,17,16,38,20.40
2013,07,17,16,39,20.40
2013,07,17,16,40,20.40
2013,07,17,16,41,20.40
2013,07,17,16,42,20.40
2013,07,17,16,43,20.50
2013,07,17,16,44,20.60
2013,07,17,16,45,20.70
2013,07,17,16,46,20.70
2013,07,17,16,47,20.80
2013,07,17,16,48,20.80
2013,07,17,16,49,20.90
2013,07,17,16,50,20.90
2013,07,17,16,51,21.00
2013,07,17,16,52,21.10
2013,07,17,16,53,21.00
2013,07,17,16,54,21.00
2013,07,17,16,55,20.90
2013,07,17,16,56,20.80
2013,07,17,16,57,20.80
2013,07,17,16,58,20.80
2013,07,17,16,59,20.70
2013,07,17,17,00,20.70
2013,07,17,17,01,20.60
2013,07,17,17,02,20.60
2013,07,17,17,03,20.70
2013,07,17,17,04,20.70
2013,07,17,17,05,20.60
2013,07,17,17,06,20.60
2013,07,17,17,07,20.60
2013,07,17,17,08,20.70
2013,07,17,17,09,20.80
2013,07,17,17,10,20.80
2013,07,17,17,11,20.80
2013,07,17,17,12,20.80
2013,07,17,17,13,20.80
2013,07,17,17,14,20.80
2013,07,17,17,15,20.80
2013,07,17,17,16,20.80
2013,07,17,17,17,20.80
2013,07,17,17,18,20.80
2013,07,17,17,19,20.80